NOAA 17 DEB, 48705

Orbit data source: Space-Track

NOAA 17 DEB, 48705 is space debris in SSO originally from a launch on Mon, 24 Jun 2002 UTC launched from the Air Force Western Test Range (AFWTR). Debris objects in space refer to the collection of defunct objects orbiting the Earth. Examples of debris include non-operational satellites, rocket bodies, and fragments generated from explosions, collisions, or faulty payload assembly.

Loading next visibility...
Identifier
48705, 2002-032AN
Orbit
SSO
Country
Flag of USUS
Related business
Manufacturer
Unknown
Mission
Spacecraft
Bus & Motor
Unknown
Mass
Unknown
Launch date (UTC)
2002-06-24 (23 years ago)
Launch vehicle
Unknown
Launch site
Air Force Western Test Range (AFWTR)
Object type
Payload
Rocket body
Debris
Shape & HBR
Unknown shape, 0.1 m
Radar Cross Section
Small (<0.1 m²)

Expand to show TLE details & history
Last TLE update: 21 hours ago

TLE from 21 hours ago
0 NOAA 17 DEB
1 48705U 02032AN  25348.82829247  .00001677  00000-0  62845-3 0  9994
2 48705  98.8004 311.3658 0010532 136.2398 223.9622 14.33054649248127
Epoch: 2025-12-14T19:52Z
TLE epoch observation values (Epoch: 2025-12-14T19:52:44.469Z)
Latitude
-0.00001°
Longitude
-70.5551°
Altitude
789.9 km
Speed
7.456 km/s
True Right ascension
20h 45m 27s
True Declination
0° 00' 00"
Sunlit
Object was in daylight at epoch
Visualization orbit readout
Latitude
Unknown
Longitude
Unknown
Altitude
Unknown
Speed
Unknown
Apparent Right ascension
Unknown
Apparent Declination
Unknown
Sunlit
N/A
Visualization observer readout
Local Sidereal Time
15:11:08
Azimuth
Unknown
Elevation
Unknown
Doppler factor
Unknown
Orbital elements
Apogee altitude
786.222 km
Perigee altitude
771.146 km
Semi-major axis
7,156.821 km
Eccentricity
0.00105
Inclination
98.8004°
RAAN
311.3658°
Arg. of periapsis
136.2398°
True anomaly
223.8785°
Mean anomaly
223.9622°
Eccentric anomaly
223.92034°
Mean motion
3.58478 °/min
Orbital period
100.42 mins
BSTAR
0.00062845
Loading maneuver chart data...
Computing Atmospheric mass density...
Loading historical data...
Loading historical data...
Loading historical data...
Loading historical data...
Loading historical data...
Loading historical data...
Loading historical data...

Documentation

Showing up to 5 results
|